Location: Finkenwalde
(53.3770°N, 14.6418°E)
Time: 10:41:18
(UTC+00:00)

Cosmos 676 Rocket - Pass Details

Date: 05 February 2023
Orbit: 754 x 782 km, 74.0° (Epoch: 19 March)

Event Time Altitude Azimuth Distance (km) Brightness Sun altitude
Rises 17:43:05 0° 212° (SSW) 3,246 7.8 -16.7°
Reaches altitude 10° 17:45:29 10° 215° (SW) 2,319 7.0 -17.1°
Maximum altitude 17:50:44 70° 299° (WNW) 824 4.3 -17.9°
Drops below altitude 10° 17:55:59 10° 23° (NNE) 2,315 6.2 -18.7°
Enters shadow 17:56:42 - 24° (NNE) 2,595 6.5 -18.8°
